Brookings, OR

10:30 PM PST on December 05, 2016 (GMT -0800)
Brookings State

Weather History for KBOK - January, 2014

Change the Weather History Date:

Friday, January 10, 2014

  Actual Average Record
Temperature  
Mean Temperature 49 °F -  
Max Temperature 51 °F 52 °F 70 °F (1938)
Min Temperature 47 °F 41 °F 26 °F (1949)
Degree Days  
Heating Degree Days 16    
Moisture  
Dew Point 48 °F    
Average Humidity 99    
Maximum Humidity 100    
Minimum Humidity 88    
Precipitation  
Precipitation 0.07 in - - ()
Sea Level Pressure  
Sea Level Pressure 30.23 in    
Wind  
Wind Speed 6 mph (SSE)    
Max Wind Speed 15 mph    
Max Gust Speed 24 mph    
Visibility 2 miles    
Events Fog , Rain    
Averages and records for this station are not official NWS values.
T = Trace of Precipitation, MM = Missing Value Source: NWS Daily Summary

Daily Weather History Graph

Daily Weather History Graph

Search for Another Location

Airport or City:

Trip Planner

Search our weather history database for the weather conditions in past years. The results will help you decide how hot, cold, wet, or windy it might be!

Date:

Astronomy

Jan. 10, 2014 Rise Set
Actual Time 7:44 AM PST 5:05 PM PST
Civil Twilight 7:13 AM PST 5:36 PM PST
Nautical Twilight 6:38 AM PST 6:11 PM PST
Astronomical Twilight 6:05 AM PST 6:44 PM PST
Moon 1:14 PM PST (1/10) 2:56 AM PST (1/10)
Length of Visible Light 10h 22m
Length of Day
9h 20m
Waxing Gibbous, 76% of the Moon is Illuminated
Jan 10
Waxing Gibbous
Jan 15
Full
Jan 23
Last Quarter
Jan 30
New
Feb 6
First Quarter

Hourly Weather History & Observations

Time (PST) Temp. Dew Point Humidity Pressure Visibility Wind Dir Wind Speed Gust Speed Precip Events Conditions
12:05 AM 48.2 °F 48.2 °F 100% 30.26 in 0.8 mi SSE 5.8 mph - 0.01 in Rain Light Rain
12:56 AM 48.9 °F 48.9 °F 100% 30.29 in 0.5 mi SSW 3.5 mph - 0.05 in Fog , Rain Light Rain
1:04 AM 48.2 °F 48.2 °F 100% 30.28 in 0.8 mi SW 5.8 mph - 0.00 in Rain Light Rain
1:20 AM 48.2 °F 48.2 °F 100% 30.29 in 0.2 mi Variable 4.6 mph - 0.00 in Fog , Rain Light Rain
1:56 AM 48.9 °F 48.9 °F 100% 30.30 in 0.2 mi Variable 4.6 mph - 0.01 in Fog Fog
2:14 AM 48.2 °F 48.2 °F 100% 30.29 in 0.5 mi ESE 3.5 mph - 0.00 in Fog , Rain Light Rain
2:22 AM 48.2 °F 48.2 °F 100% 30.28 in 0.2 mi SE 4.6 mph - 0.00 in Fog , Rain Light Rain
2:38 AM 48.2 °F 48.2 °F 100% 30.28 in 0.2 mi SE 4.6 mph - 0.00 in Fog Fog
2:56 AM 48.9 °F 48.9 °F 100% 30.29 in 0.2 mi SSE 4.6 mph - 0.00 in Fog Fog
3:56 AM 48.9 °F 48.9 °F 100% 30.28 in 0.2 mi SE 3.5 mph - N/A Fog Fog
4:08 AM 48.2 °F 48.2 °F 100% 30.27 in 0.5 mi SE 3.5 mph - N/A Fog Fog
4:10 AM 48.2 °F 48.2 °F 100% 30.27 in 1.0 mi Variable 3.5 mph - N/A   Overcast
4:12 AM 48.2 °F 48.2 °F 100% 30.27 in 2.0 mi SE 4.6 mph - N/A   Overcast
4:19 AM 48.2 °F 48.2 °F 100% 30.27 in 6.0 mi Variable 4.6 mph - N/A   Overcast
4:56 AM 48.9 °F 48.9 °F 100% 30.28 in 3.0 mi SE 4.6 mph - 0.01 in   Overcast
5:38 AM 48.2 °F 48.2 °F 100% 30.27 in 5.0 mi Variable 3.5 mph - N/A   Overcast
5:56 AM 48.9 °F 48.9 °F 100% 30.28 in 3.0 mi Variable 3.5 mph - N/A   Overcast
6:04 AM 48.2 °F 48.2 °F 100% 30.27 in 2.0 mi Variable 4.6 mph - N/A   Overcast
6:12 AM 48.2 °F 48.2 °F 100% 30.28 in 1.5 mi SSE 3.5 mph - N/A   Overcast
6:19 AM 48.2 °F 48.2 °F 100% 30.28 in 1.2 mi ESE 3.5 mph - N/A   Overcast
6:35 AM 48.2 °F 48.2 °F 100% 30.28 in 0.8 mi SE 4.6 mph - N/A   Overcast
6:46 AM 48.2 °F 48.2 °F 100% 30.27 in 0.5 mi SE 4.6 mph - N/A Fog Fog
6:56 AM 48.9 °F 48.9 °F 100% 30.27 in 0.5 mi ESE 5.8 mph - 0.00 in Fog , Rain Light Rain
7:18 AM 48.2 °F 48.2 °F 100% 30.25 in 0.8 mi ESE 4.6 mph - 0.00 in Rain Light Rain
7:46 AM 48.2 °F 48.2 °F 100% 30.25 in 0.5 mi ESE 4.6 mph - 0.00 in Fog Fog
7:56 AM 48.9 °F 48.9 °F 100% 30.27 in 0.2 mi Variable 5.8 mph - 0.00 in Fog Fog
8:09 AM 48.2 °F 48.2 °F 100% 30.26 in 0.2 mi SE 4.6 mph - N/A Fog Fog
8:35 AM 48.2 °F 48.2 °F 100% 30.26 in 0.2 mi Variable 3.5 mph - N/A Fog Fog
8:42 AM 48.2 °F 48.2 °F 100% 30.26 in 0.5 mi Variable 4.6 mph - N/A Fog Fog
8:47 AM 48.2 °F 48.2 °F 100% 30.26 in 1.0 mi Calm Calm - N/A   Overcast
8:49 AM 48.2 °F 48.2 °F 100% 30.26 in 1.5 mi Variable 3.5 mph - N/A   Overcast
8:56 AM 47.8 °F 47.8 °F 100% 30.27 in 5.0 mi SSE 5.8 mph - N/A   Overcast
9:14 AM 48.2 °F 48.2 °F 100% 30.26 in 10.0 mi SE 5.8 mph - N/A   Overcast
9:56 AM 48.9 °F 48.9 °F 100% 30.28 in 10.0 mi Variable 3.5 mph - N/A   Overcast
10:27 AM 50.0 °F 48.2 °F 94% 30.28 in 4.0 mi SSE 6.9 mph - N/A   Overcast
10:35 AM 48.2 °F 48.2 °F 100% 30.28 in 1.8 mi South 6.9 mph - N/A   Overcast
10:47 AM 48.2 °F 48.2 °F 100% 30.28 in 1.0 mi SSE 6.9 mph - N/A   Overcast
10:56 AM 48.9 °F 48.9 °F 100% 30.29 in 0.2 mi SSE 6.9 mph - N/A Fog Fog
11:06 AM 48.2 °F 48.2 °F 100% 30.28 in 0.8 mi SSE 9.2 mph - N/A   Overcast
11:09 AM 48.2 °F 48.2 °F 100% 30.28 in 1.2 mi South 8.1 mph - N/A   Overcast
11:11 AM 48.2 °F 48.2 °F 100% 30.28 in 2.0 mi SSE 6.9 mph - N/A   Overcast
11:19 AM 48.2 °F 48.2 °F 100% 30.28 in 4.0 mi South 5.8 mph - N/A   Overcast
11:56 AM 48.9 °F 48.9 °F 100% 30.28 in 5.0 mi South 6.9 mph - N/A   Overcast
12:07 PM 48.2 °F 48.2 °F 100% 30.27 in 4.0 mi SSE 8.1 mph - N/A   Overcast
12:11 PM 48.2 °F 48.2 °F 100% 30.27 in 1.5 mi South 8.1 mph - N/A   Overcast
12:13 PM 48.2 °F 48.2 °F 100% 30.27 in 0.5 mi South 8.1 mph - N/A Fog Fog
12:21 PM 48.2 °F 48.2 °F 100% 30.27 in 0.2 mi SSE 8.1 mph - N/A Fog Fog
12:41 PM 48.2 °F 48.2 °F 100% 30.25 in 0.2 mi SSE 6.9 mph - N/A Fog Fog
12:56 PM 48.9 °F 48.9 °F 100% 30.26 in 0.2 mi SSE 8.1 mph - N/A Fog Fog
1:29 PM 48.2 °F 48.2 °F 100% 30.24 in 0.5 mi SSE 9.2 mph - N/A Fog Fog
1:41 PM 48.2 °F 48.2 °F 100% 30.23 in 1.2 mi SSE 8.1 mph - N/A   Overcast
1:43 PM 48.2 °F 48.2 °F 100% 30.23 in 3.0 mi SSE 9.2 mph - N/A   Overcast
1:56 PM 47.8 °F 47.8 °F 100% 30.23 in 6.0 mi SE 6.9 mph - N/A   Overcast
2:44 PM 48.2 °F 48.2 °F 100% 30.20 in 9.0 mi Variable 5.8 mph - N/A   Overcast
2:56 PM 50.0 °F 48.9 °F 96% 30.21 in 9.0 mi SE 6.9 mph - N/A   Overcast
3:56 PM 50.0 °F 48.9 °F 96% 30.20 in 4.0 mi Variable 6.9 mph - N/A   Overcast
4:23 PM 50.0 °F 48.2 °F 94% 30.19 in 2.5 mi SE 5.8 mph - N/A   Overcast
4:34 PM 48.2 °F 48.2 °F 100% 30.19 in 3.0 mi SE 5.8 mph - N/A   Overcast
4:41 PM 48.2 °F 48.2 °F 100% 30.19 in 3.0 mi SE 4.6 mph - N/A   Overcast
4:56 PM 48.9 °F 48.9 °F 100% 30.19 in 3.0 mi SE 4.6 mph - N/A   Overcast
5:04 PM 48.2 °F 48.2 °F 100% 30.18 in 2.5 mi SSE 6.9 mph - N/A   Overcast
5:18 PM 48.2 °F 48.2 °F 100% 30.18 in 4.0 mi ESE 4.6 mph - N/A   Overcast
5:56 PM 50.0 °F 47.8 °F 92% 30.18 in 5.0 mi ESE 4.6 mph - N/A   Overcast
6:56 PM 50.0 °F 47.8 °F 92% 30.16 in 9.0 mi SE 8.1 mph - N/A   Overcast
7:09 PM 51.8 °F 48.2 °F 88% 30.15 in 9.0 mi SE 6.9 mph - N/A   Overcast
7:56 PM 50.0 °F 47.8 °F 92% 30.15 in 6.0 mi SE 6.9 mph - N/A   Overcast
8:56 PM 50.0 °F 47.8 °F 92% 30.14 in 6.0 mi SE 9.2 mph - N/A   Overcast
9:39 PM 50.0 °F 48.2 °F 94% 30.12 in 1.8 mi SSE 11.5 mph 19.6 mph N/A   Overcast
9:45 PM 50.0 °F 48.2 °F 94% 30.12 in 1.2 mi SSE 12.7 mph - N/A   Overcast
9:56 PM 50.0 °F 48.9 °F 96% 30.13 in 1.8 mi SE 10.4 mph - N/A   Overcast
10:06 PM 50.0 °F 48.2 °F 94% 30.12 in 1.8 mi SSE 9.2 mph - N/A   Overcast
10:14 PM 50.0 °F 48.2 °F 94% 30.11 in 2.0 mi SSE 11.5 mph - N/A   Overcast
10:21 PM 50.0 °F 48.2 °F 94% 30.11 in 1.8 mi SE 9.2 mph - N/A   Overcast
10:56 PM 50.0 °F 50.0 °F 100% 30.12 in 1.0 mi SSE 13.8 mph 20.7 mph N/A   Overcast
11:01 PM 50.0 °F 50.0 °F 100% 30.11 in 1.5 mi SSE 10.4 mph 19.6 mph N/A   Overcast
11:11 PM 50.0 °F 50.0 °F 100% 30.10 in 3.0 mi SSE 12.7 mph 19.6 mph N/A   Overcast
11:38 PM 50.0 °F 50.0 °F 100% 30.09 in 1.8 mi SSE 13.8 mph 24.2 mph N/A   Overcast
11:44 PM 50.0 °F 50.0 °F 100% 30.09 in 1.0 mi SSE 15.0 mph - 0.00 in Rain Light Rain
11:56 PM 50.0 °F 50.0 °F 100% 30.09 in 0.5 mi South 12.7 mph 20.7 mph 0.00 in Fog , Rain Light Rain